Location: Fontevrault
(47.1823°N, 0.0493°E)
Time: 17:18:09
(UTC+00:00)

Cosmos 1725 Rocket - Pass Details

Date: 26 October 2021
Orbit: 961 x 991 km, 82.9° (Epoch: 27 November)

Event Time Altitude Azimuth Distance (km) Brightness Sun altitude
Rises 04:49:37 0° 4° (N) 3,659 7.1 -18.3°
Reaches altitude 10° 04:53:54 10° 32° (NNE) 2,707 6.7 -17.6°
Maximum altitude 04:56:32 13° 58° (ENE) 2,503 7.0 -17.1°
Drops below altitude 10° 04:59:10 10° 83° (E) 2,703 7.6 -16.7°
Sets 05:03:24 0° 111° (ESE) 3,647 8.4 -16.0°
